Year,Month,Day,Hour,Minute,Value (Times are PST for temperature in C)
2012,07,25,00,00,13.30
2012,07,25,00,01,13.30
2012,07,25,00,02,13.20
2012,07,25,00,03,13.20
2012,07,25,00,04,13.20
2012,07,25,00,05,13.20
2012,07,25,00,06,13.20
2012,07,25,00,07,13.20
2012,07,25,00,08,13.20
2012,07,25,00,09,13.20
2012,07,25,00,10,13.10
2012,07,25,00,11,13.10
2012,07,25,00,12,13.10
2012,07,25,00,13,13.10
2012,07,25,00,14,13.10
2012,07,25,00,15,13.10
2012,07,25,00,16,13.10
2012,07,25,00,17,13.00
2012,07,25,00,18,13.00
2012,07,25,00,19,13.00
2012,07,25,00,20,13.00
2012,07,25,00,21,13.00
2012,07,25,00,22,13.00
2012,07,25,00,23,13.00
2012,07,25,00,24,13.00
2012,07,25,00,25,13.00
2012,07,25,00,26,12.90
2012,07,25,00,27,12.90
2012,07,25,00,28,12.90
2012,07,25,00,29,12.90
2012,07,25,00,30,12.90
2012,07,25,00,31,12.90
2012,07,25,00,32,12.90
2012,07,25,00,33,12.90
2012,07,25,00,34,12.90
2012,07,25,00,35,12.90
2012,07,25,00,36,12.90
2012,07,25,00,37,12.90
2012,07,25,00,38,12.90
2012,07,25,00,39,12.90
2012,07,25,00,40,12.90
2012,07,25,00,41,12.90
2012,07,25,00,42,12.90
2012,07,25,00,43,12.90
2012,07,25,00,44,12.90
2012,07,25,00,45,12.80
2012,07,25,00,46,12.80
2012,07,25,00,47,12.80
2012,07,25,00,48,12.80
2012,07,25,00,49,12.80
2012,07,25,00,50,12.70
2012,07,25,00,51,12.70
2012,07,25,00,52,12.70
2012,07,25,00,53,12.70
2012,07,25,00,54,12.70
2012,07,25,00,55,12.70
2012,07,25,00,56,12.60
2012,07,25,00,57,12.70
2012,07,25,00,58,12.60
2012,07,25,00,59,12.70
2012,07,25,01,00,12.70
2012,07,25,01,01,12.60
2012,07,25,01,02,12.60
2012,07,25,01,03,12.60
2012,07,25,01,04,12.60
2012,07,25,01,05,12.60
2012,07,25,01,06,12.60
2012,07,25,01,07,12.60
2012,07,25,01,08,12.60
2012,07,25,01,09,12.60
2012,07,25,01,10,12.60
2012,07,25,01,11,12.60
2012,07,25,01,12,12.60
2012,07,25,01,13,12.60
2012,07,25,01,14,12.60
2012,07,25,01,15,12.60
2012,07,25,01,16,12.60
2012,07,25,01,17,12.60
2012,07,25,01,18,12.60
2012,07,25,01,19,12.60
2012,07,25,01,20,12.60
2012,07,25,01,21,12.60
2012,07,25,01,22,12.50
2012,07,25,01,23,12.50
2012,07,25,01,24,12.50
2012,07,25,01,25,12.40
2012,07,25,01,26,12.40
2012,07,25,01,27,12.40
2012,07,25,01,28,12.40
2012,07,25,01,29,12.30
2012,07,25,01,30,12.30
2012,07,25,01,31,12.30
2012,07,25,01,32,12.30
2012,07,25,01,33,12.30
2012,07,25,01,34,12.30
2012,07,25,01,35,12.30
2012,07,25,01,36,12.30
2012,07,25,01,37,12.30
2012,07,25,01,38,12.30
2012,07,25,01,39,12.30
2012,07,25,01,40,12.20
2012,07,25,01,41,12.30
2012,07,25,01,42,12.30
2012,07,25,01,43,12.20
2012,07,25,01,44,12.20
2012,07,25,01,45,12.20
2012,07,25,01,46,12.20
2012,07,25,01,47,12.20
2012,07,25,01,48,12.20
2012,07,25,01,49,12.20
2012,07,25,01,50,12.20
2012,07,25,01,51,12.20
2012,07,25,01,52,12.20
2012,07,25,01,53,12.20
2012,07,25,01,54,12.20
2012,07,25,01,55,12.20
2012,07,25,01,56,12.20
2012,07,25,01,57,12.20
2012,07,25,01,58,12.10
2012,07,25,01,59,12.10
2012,07,25,02,00,12.10
2012,07,25,02,01,12.10
2012,07,25,02,02,12.10
2012,07,25,02,03,12.10
2012,07,25,02,04,12.10
2012,07,25,02,05,12.10
2012,07,25,02,06,12.10
2012,07,25,02,07,12.10
2012,07,25,02,08,12.10
2012,07,25,02,09,12.10
2012,07,25,02,10,12.10
2012,07,25,02,11,12.10
2012,07,25,02,12,12.10
2012,07,25,02,13,12.10
2012,07,25,02,14,12.10
2012,07,25,02,15,12.10
2012,07,25,02,16,12.10
2012,07,25,02,17,12.00
2012,07,25,02,18,12.00
2012,07,25,02,19,11.90
2012,07,25,02,20,11.90
2012,07,25,02,21,11.90
2012,07,25,02,22,11.80
2012,07,25,02,23,11.80
2012,07,25,02,24,11.80
2012,07,25,02,25,11.80
2012,07,25,02,26,11.70
2012,07,25,02,27,11.70
2012,07,25,02,28,11.70
2012,07,25,02,29,11.70
2012,07,25,02,30,11.70
2012,07,25,02,31,11.70
2012,07,25,02,32,11.70
2012,07,25,02,33,11.70
2012,07,25,02,34,11.70
2012,07,25,02,35,11.70
2012,07,25,02,36,11.70
2012,07,25,02,37,11.70
2012,07,25,02,38,11.70
2012,07,25,02,39,11.70
2012,07,25,02,40,11.80
2012,07,25,02,41,11.80
2012,07,25,02,42,11.80
2012,07,25,02,43,11.80
2012,07,25,02,44,11.80
2012,07,25,02,45,11.80
2012,07,25,02,46,11.80
2012,07,25,02,47,11.80
2012,07,25,02,48,11.80
2012,07,25,02,49,11.70
2012,07,25,02,50,11.70
2012,07,25,02,51,11.70
2012,07,25,02,52,11.70
2012,07,25,02,53,11.70
2012,07,25,02,54,11.70
2012,07,25,02,55,11.60
2012,07,25,02,56,11.60
2012,07,25,02,57,11.60
2012,07,25,02,58,11.60
2012,07,25,02,59,11.60
2012,07,25,03,00,11.50
2012,07,25,03,01,11.50
2012,07,25,03,02,11.50
2012,07,25,03,03,11.50
2012,07,25,03,04,11.50
2012,07,25,03,05,11.40
2012,07,25,03,06,11.40
2012,07,25,03,07,11.40
2012,07,25,03,08,11.40
2012,07,25,03,09,11.40
2012,07,25,03,10,11.40
2012,07,25,03,11,11.40
2012,07,25,03,12,11.40
2012,07,25,03,13,11.40
2012,07,25,03,14,11.40
2012,07,25,03,15,11.40
2012,07,25,03,16,11.40
2012,07,25,03,17,11.40
2012,07,25,03,18,11.30
2012,07,25,03,19,11.30
2012,07,25,03,20,11.30
2012,07,25,03,21,11.30
2012,07,25,03,22,11.30
2012,07,25,03,23,11.30
2012,07,25,03,24,11.30
2012,07,25,03,25,11.30
2012,07,25,03,26,11.30
2012,07,25,03,27,11.30
2012,07,25,03,28,11.30
2012,07,25,03,29,11.30
2012,07,25,03,30,11.30
2012,07,25,03,31,11.30
2012,07,25,03,32,11.30
2012,07,25,03,33,11.30
2012,07,25,03,34,11.30
2012,07,25,03,35,11.30
2012,07,25,03,36,11.20
2012,07,25,03,37,11.20
2012,07,25,03,38,11.20
2012,07,25,03,39,11.20
2012,07,25,03,40,11.20
2012,07,25,03,41,11.20
2012,07,25,03,42,11.20
2012,07,25,03,43,11.20
2012,07,25,03,44,11.20
2012,07,25,03,45,11.20
2012,07,25,03,46,11.20
2012,07,25,03,47,11.20
2012,07,25,03,48,11.20
2012,07,25,03,49,11.20
2012,07,25,03,50,11.20
2012,07,25,03,51,11.30
2012,07,25,03,52,11.30
2012,07,25,03,53,11.30
2012,07,25,03,54,11.30
2012,07,25,03,55,11.40
2012,07,25,03,56,11.40
2012,07,25,03,57,11.40
2012,07,25,03,58,11.40
2012,07,25,03,59,11.40
2012,07,25,04,00,11.40
2012,07,25,04,01,11.40
2012,07,25,04,02,11.40
2012,07,25,04,03,11.40
2012,07,25,04,04,11.40
2012,07,25,04,05,11.40
2012,07,25,04,06,11.40
2012,07,25,04,07,11.40
2012,07,25,04,08,11.40
2012,07,25,04,09,11.40
2012,07,25,04,10,11.40
2012,07,25,04,11,11.40
2012,07,25,04,12,11.40
2012,07,25,04,13,11.40
2012,07,25,04,14,11.50
2012,07,25,04,15,11.50
2012,07,25,04,16,11.50
2012,07,25,04,17,11.60
2012,07,25,04,18,11.60
2012,07,25,04,19,11.60
2012,07,25,04,20,11.60
2012,07,25,04,21,11.60
2012,07,25,04,22,11.60
2012,07,25,04,23,11.60
2012,07,25,04,24,11.70
2012,07,25,04,25,11.70
2012,07,25,04,26,11.70
2012,07,25,04,27,11.70
2012,07,25,04,28,11.70
2012,07,25,04,29,11.80
2012,07,25,04,30,11.80
2012,07,25,04,31,11.80
2012,07,25,04,32,11.80
2012,07,25,04,33,11.80
2012,07,25,04,34,11.80
2012,07,25,04,35,11.80
2012,07,25,04,36,11.80
2012,07,25,04,37,11.80
2012,07,25,04,38,11.80
2012,07,25,04,39,11.80
2012,07,25,04,40,11.80
2012,07,25,04,41,11.80
2012,07,25,04,42,11.80
2012,07,25,04,43,11.80
2012,07,25,04,44,11.80
2012,07,25,04,45,11.80
2012,07,25,04,46,11.80
2012,07,25,04,47,11.80
2012,07,25,04,48,11.80
2012,07,25,04,49,11.80
2012,07,25,04,50,11.80
2012,07,25,04,51,11.80
2012,07,25,04,52,11.80
2012,07,25,04,53,11.90
2012,07,25,04,54,11.90
2012,07,25,04,55,11.90
2012,07,25,04,56,11.90
2012,07,25,04,57,11.90
2012,07,25,04,58,11.90
2012,07,25,04,59,11.90
2012,07,25,05,00,11.90
2012,07,25,05,01,11.90
2012,07,25,05,02,12.00
2012,07,25,05,03,12.00
2012,07,25,05,04,12.00
2012,07,25,05,05,12.00
2012,07,25,05,06,12.00
2012,07,25,05,07,12.00
2012,07,25,05,08,12.00
2012,07,25,05,09,12.00
2012,07,25,05,10,12.00
2012,07,25,05,11,12.00
2012,07,25,05,12,12.00
2012,07,25,05,13,12.00
2012,07,25,05,14,12.00
2012,07,25,05,15,12.00
2012,07,25,05,16,12.00
2012,07,25,05,17,12.00
2012,07,25,05,18,12.00
2012,07,25,05,19,12.00
2012,07,25,05,20,11.90
2012,07,25,05,21,11.90
2012,07,25,05,22,11.90
2012,07,25,05,23,11.90
2012,07,25,05,24,11.90
2012,07,25,05,25,11.90
2012,07,25,05,26,11.90
2012,07,25,05,27,11.90
2012,07,25,05,28,11.90
2012,07,25,05,29,11.90
2012,07,25,05,30,11.90
2012,07,25,05,31,12.00
2012,07,25,05,32,12.00
2012,07,25,05,33,12.00
2012,07,25,05,34,12.10
2012,07,25,05,35,12.00
2012,07,25,05,36,12.00
2012,07,25,05,37,12.00
2012,07,25,05,38,11.90
2012,07,25,05,39,11.90
2012,07,25,05,40,11.90
2012,07,25,05,41,12.00
2012,07,25,05,42,11.90
2012,07,25,05,43,11.90
2012,07,25,05,44,11.90
2012,07,25,05,45,11.90
2012,07,25,05,46,11.90
2012,07,25,05,47,11.90
2012,07,25,05,48,11.90
2012,07,25,05,49,11.90
2012,07,25,05,50,11.90
2012,07,25,05,51,11.90
2012,07,25,05,52,11.90
2012,07,25,05,53,11.90
2012,07,25,05,54,11.90
2012,07,25,05,55,11.90
2012,07,25,05,56,11.90
2012,07,25,05,57,11.90
2012,07,25,05,58,11.90
2012,07,25,05,59,11.90
2012,07,25,06,00,11.90
2012,07,25,06,01,11.90
2012,07,25,06,02,11.80
2012,07,25,06,03,11.90
2012,07,25,06,04,11.90
2012,07,25,06,05,11.90
2012,07,25,06,06,11.80
2012,07,25,06,07,11.80
2012,07,25,06,08,11.90
2012,07,25,06,09,11.90
2012,07,25,06,10,11.90
2012,07,25,06,11,11.90
2012,07,25,06,12,11.90
2012,07,25,06,13,12.00
2012,07,25,06,14,12.00
2012,07,25,06,15,12.10
2012,07,25,06,16,12.10
2012,07,25,06,17,12.10
2012,07,25,06,18,12.10
2012,07,25,06,19,12.10
2012,07,25,06,20,12.10
2012,07,25,06,21,12.10
2012,07,25,06,22,12.10
2012,07,25,06,23,12.10
2012,07,25,06,24,12.10
2012,07,25,06,25,12.10
2012,07,25,06,26,12.20
2012,07,25,06,27,12.20
2012,07,25,06,28,12.20
2012,07,25,06,29,12.20
2012,07,25,06,30,12.30
2012,07,25,06,31,12.30
2012,07,25,06,32,12.30
2012,07,25,06,33,12.30
2012,07,25,06,34,12.30
2012,07,25,06,35,12.30
2012,07,25,06,36,12.30
2012,07,25,06,37,12.30
2012,07,25,06,38,12.40
2012,07,25,06,39,12.50
2012,07,25,06,40,12.50
2012,07,25,06,41,12.60
2012,07,25,06,42,12.60
2012,07,25,06,43,12.60
2012,07,25,06,44,12.60
2012,07,25,06,45,12.60
2012,07,25,06,46,12.60
2012,07,25,06,47,12.70
2012,07,25,06,48,12.70
2012,07,25,06,49,12.70
2012,07,25,06,50,12.80
2012,07,25,06,51,12.80
2012,07,25,06,52,12.90
2012,07,25,06,53,12.90
2012,07,25,06,54,13.00
2012,07,25,06,55,13.00
2012,07,25,06,56,13.10
2012,07,25,06,57,13.10
2012,07,25,06,58,13.10
2012,07,25,06,59,13.20
2012,07,25,07,00,13.20
2012,07,25,07,01,13.30
2012,07,25,07,02,13.40
2012,07,25,07,03,13.50
2012,07,25,07,04,13.60
2012,07,25,07,05,13.60
2012,07,25,07,06,13.70
2012,07,25,07,07,13.80
2012,07,25,07,08,14.00
2012,07,25,07,09,14.00
2012,07,25,07,10,14.10
2012,07,25,07,11,14.20
2012,07,25,07,12,14.20
2012,07,25,07,13,14.30
2012,07,25,07,14,14.40
2012,07,25,07,15,14.40
2012,07,25,07,16,14.50
2012,07,25,07,17,14.70
2012,07,25,07,18,14.80
2012,07,25,07,19,14.90
2012,07,25,07,20,15.00
2012,07,25,07,21,15.00
2012,07,25,07,22,15.00
2012,07,25,07,23,15.10
2012,07,25,07,24,15.20
2012,07,25,07,25,15.30
2012,07,25,07,26,15.30
2012,07,25,07,27,15.40
2012,07,25,07,28,15.50
2012,07,25,07,29,15.50
2012,07,25,07,30,15.60
2012,07,25,07,31,15.70
2012,07,25,07,32,15.70
2012,07,25,07,33,15.80
2012,07,25,07,34,15.80
2012,07,25,07,35,15.90
2012,07,25,07,36,15.90
2012,07,25,07,37,16.00
2012,07,25,07,38,16.10
2012,07,25,07,39,16.10
2012,07,25,07,40,16.10
2012,07,25,07,41,16.20
2012,07,25,07,42,16.20
2012,07,25,07,43,16.20
2012,07,25,07,44,16.20
2012,07,25,07,45,16.30
2012,07,25,07,46,16.30
2012,07,25,07,47,16.30
2012,07,25,07,48,16.40
2012,07,25,07,49,16.40
2012,07,25,07,50,16.40
2012,07,25,07,51,16.40
2012,07,25,07,52,16.50
2012,07,25,07,53,16.50
2012,07,25,07,54,16.50
2012,07,25,07,55,16.60
2012,07,25,07,56,16.60
2012,07,25,07,57,16.60
2012,07,25,07,58,16.60
2012,07,25,07,59,16.70
2012,07,25,08,00,16.70
2012,07,25,08,01,16.70
2012,07,25,08,02,16.70
2012,07,25,08,03,16.80
2012,07,25,08,04,16.80
2012,07,25,08,05,16.80
2012,07,25,08,06,16.80
2012,07,25,08,07,16.80
2012,07,25,08,08,16.80
2012,07,25,08,09,16.80
2012,07,25,08,10,16.80
2012,07,25,08,11,16.80
2012,07,25,08,12,16.90
2012,07,25,08,13,16.90
2012,07,25,08,14,16.90
2012,07,25,08,15,17.00
2012,07,25,08,16,17.00
2012,07,25,08,17,17.00
2012,07,25,08,18,17.10
2012,07,25,08,19,17.10
2012,07,25,08,20,17.10
2012,07,25,08,21,17.10
2012,07,25,08,22,17.20
2012,07,25,08,23,17.20
2012,07,25,08,24,17.30
2012,07,25,08,25,17.30
2012,07,25,08,26,17.30
2012,07,25,08,27,17.30
2012,07,25,08,28,17.40
2012,07,25,08,29,17.40
2012,07,25,08,30,17.40
2012,07,25,08,31,17.40
2012,07,25,08,32,17.50
2012,07,25,08,33,17.50
2012,07,25,08,34,17.50
2012,07,25,08,35,17.60
2012,07,25,08,36,17.60
2012,07,25,08,37,17.60
2012,07,25,08,38,17.70
2012,07,25,08,39,17.70
2012,07,25,08,40,17.70
2012,07,25,08,41,17.70
2012,07,25,08,42,17.80
2012,07,25,08,43,17.80
2012,07,25,08,44,17.80
2012,07,25,08,45,17.80
2012,07,25,08,46,17.80
2012,07,25,08,47,17.90
2012,07,25,08,48,17.90
2012,07,25,08,49,17.90
2012,07,25,08,50,17.90
2012,07,25,08,51,17.90
2012,07,25,08,52,17.90
2012,07,25,08,53,18.00
2012,07,25,08,54,18.00
2012,07,25,08,55,18.10
2012,07,25,08,56,18.10
2012,07,25,08,57,18.10
2012,07,25,08,58,18.10
2012,07,25,08,59,18.10
2012,07,25,09,00,18.10
2012,07,25,09,01,18.10
2012,07,25,09,02,18.10
2012,07,25,09,03,18.20
2012,07,25,09,04,18.20
2012,07,25,09,05,18.20
2012,07,25,09,06,18.30
2012,07,25,09,07,18.30
2012,07,25,09,08,18.40
2012,07,25,09,09,18.40
2012,07,25,09,10,18.40
2012,07,25,09,11,18.40
2012,07,25,09,12,18.40
2012,07,25,09,13,18.40
2012,07,25,09,14,18.30
2012,07,25,09,15,18.30
2012,07,25,09,16,18.30
2012,07,25,09,17,18.30
2012,07,25,09,18,18.30
2012,07,25,09,19,18.30
2012,07,25,09,20,18.30
2012,07,25,09,21,18.30
2012,07,25,09,22,18.30
2012,07,25,09,23,18.40
2012,07,25,09,24,18.40
2012,07,25,09,25,18.40
2012,07,25,09,26,18.40
2012,07,25,09,27,18.40
2012,07,25,09,28,18.50
2012,07,25,09,29,18.50
2012,07,25,09,30,18.60
2012,07,25,09,31,18.60
2012,07,25,09,32,18.70
2012,07,25,09,33,18.70
2012,07,25,09,34,18.70
2012,07,25,09,35,18.80
2012,07,25,09,36,18.80
2012,07,25,09,37,18.90
2012,07,25,09,38,18.90
2012,07,25,09,39,18.90
2012,07,25,09,40,18.90
2012,07,25,09,41,19.00
2012,07,25,09,42,19.00
2012,07,25,09,43,19.00
2012,07,25,09,44,19.00
2012,07,25,09,45,19.00
2012,07,25,09,46,19.00
2012,07,25,09,47,19.00
2012,07,25,09,48,19.00
2012,07,25,09,49,19.00
2012,07,25,09,50,19.00
2012,07,25,09,51,19.00
2012,07,25,09,52,19.10
2012,07,25,09,53,19.10
2012,07,25,09,54,19.10
2012,07,25,09,55,19.20
2012,07,25,09,56,19.20
2012,07,25,09,57,19.30
2012,07,25,09,58,19.40
2012,07,25,09,59,19.40
2012,07,25,10,00,19.40
2012,07,25,10,01,19.50
2012,07,25,10,02,19.60
2012,07,25,10,03,19.60
2012,07,25,10,04,19.70
2012,07,25,10,05,19.70
2012,07,25,10,06,19.70
2012,07,25,10,07,19.60
2012,07,25,10,08,19.60
2012,07,25,10,09,19.60
2012,07,25,10,10,19.60
2012,07,25,10,11,19.70
2012,07,25,10,12,19.70
2012,07,25,10,13,19.70
2012,07,25,10,14,19.80
2012,07,25,10,15,19.80
2012,07,25,10,16,19.70
2012,07,25,10,17,19.70
2012,07,25,10,18,19.70
2012,07,25,10,19,19.70
2012,07,25,10,20,19.70
2012,07,25,10,21,19.70
2012,07,25,10,22,19.70
2012,07,25,10,23,19.80
2012,07,25,10,24,19.80
2012,07,25,10,25,19.80
2012,07,25,10,26,19.80
2012,07,25,10,27,19.80
2012,07,25,10,28,19.80
2012,07,25,10,29,19.80
2012,07,25,10,30,19.90
2012,07,25,10,31,20.00
2012,07,25,10,32,20.10
2012,07,25,10,33,20.20
2012,07,25,10,34,20.40
2012,07,25,10,35,20.50
2012,07,25,10,36,20.60
2012,07,25,10,37,20.80
2012,07,25,10,38,20.80
2012,07,25,10,39,20.90
2012,07,25,10,40,20.90
2012,07,25,10,41,20.80
2012,07,25,10,42,20.90
2012,07,25,10,43,21.00
2012,07,25,10,44,21.00
2012,07,25,10,45,21.10
2012,07,25,10,46,21.20
2012,07,25,10,47,21.20
2012,07,25,10,48,21.30
2012,07,25,10,49,21.50
2012,07,25,10,50,21.60
2012,07,25,10,51,21.60
2012,07,25,10,52,21.60
2012,07,25,10,53,21.50
2012,07,25,10,54,21.40
2012,07,25,10,55,21.30
2012,07,25,10,56,21.30
2012,07,25,10,57,21.20
2012,07,25,10,58,21.20
2012,07,25,10,59,21.20
2012,07,25,11,00,21.20
2012,07,25,11,01,21.20
2012,07,25,11,02,21.30
2012,07,25,11,03,21.30
2012,07,25,11,04,21.20
2012,07,25,11,05,21.20
2012,07,25,11,06,21.20
2012,07,25,11,07,21.20
2012,07,25,11,08,21.10
2012,07,25,11,09,21.10
2012,07,25,11,10,21.10
2012,07,25,11,11,21.10
2012,07,25,11,12,21.10
2012,07,25,11,13,21.10
2012,07,25,11,14,21.00
2012,07,25,11,15,20.90
2012,07,25,11,16,20.90
2012,07,25,11,17,21.00
2012,07,25,11,18,21.10
2012,07,25,11,19,21.10
2012,07,25,11,20,21.20
2012,07,25,11,21,21.30
2012,07,25,11,22,21.40
2012,07,25,11,23,21.40
2012,07,25,11,24,21.30
2012,07,25,11,25,21.30
2012,07,25,11,26,21.30
2012,07,25,11,27,21.30
2012,07,25,11,28,21.30
2012,07,25,11,29,21.30
2012,07,25,11,30,21.40
2012,07,25,11,31,21.40
2012,07,25,11,32,21.40
2012,07,25,11,33,21.50
2012,07,25,11,34,21.50
2012,07,25,11,35,21.60
2012,07,25,11,36,21.70
2012,07,25,11,37,21.80
2012,07,25,11,38,21.90
2012,07,25,11,39,22.00
2012,07,25,11,40,22.00
2012,07,25,11,41,21.90
2012,07,25,11,42,21.80
2012,07,25,11,43,21.80
2012,07,25,11,44,21.80
2012,07,25,11,45,21.70
2012,07,25,11,46,21.70
2012,07,25,11,47,21.70
2012,07,25,11,48,21.70
2012,07,25,11,49,21.70
2012,07,25,11,50,21.70
2012,07,25,11,51,21.70
2012,07,25,11,52,21.80
2012,07,25,11,53,21.80
2012,07,25,11,54,21.80
2012,07,25,11,55,21.80
2012,07,25,11,56,21.60
2012,07,25,11,57,21.50
2012,07,25,11,58,21.50
2012,07,25,11,59,21.60
2012,07,25,12,00,21.70
2012,07,25,12,01,21.70
2012,07,25,12,02,21.70
2012,07,25,12,03,21.70
2012,07,25,12,04,21.70
2012,07,25,12,05,21.70
2012,07,25,12,06,21.80
2012,07,25,12,07,21.80
2012,07,25,12,08,21.80
2012,07,25,12,09,21.70
2012,07,25,12,10,21.60
2012,07,25,12,11,21.60
2012,07,25,12,12,21.60
2012,07,25,12,13,21.60
2012,07,25,12,14,21.60
2012,07,25,12,15,21.60
2012,07,25,12,16,21.50
2012,07,25,12,17,21.50
2012,07,25,12,18,21.60
2012,07,25,12,19,21.60
2012,07,25,12,20,21.70
2012,07,25,12,21,21.70
2012,07,25,12,22,21.70
2012,07,25,12,23,21.60
2012,07,25,12,24,21.60
2012,07,25,12,25,21.50
2012,07,25,12,26,21.40
2012,07,25,12,27,21.30
2012,07,25,12,28,21.30
2012,07,25,12,29,21.40
2012,07,25,12,30,21.40
2012,07,25,12,31,21.50
2012,07,25,12,32,21.40
2012,07,25,12,33,21.40
2012,07,25,12,34,21.40
2012,07,25,12,35,21.60
2012,07,25,12,36,21.70
2012,07,25,12,37,21.70
2012,07,25,12,38,21.60
2012,07,25,12,39,21.50
2012,07,25,12,40,21.50
2012,07,25,12,41,21.60
2012,07,25,12,42,21.70
2012,07,25,12,43,21.70
2012,07,25,12,44,21.80
2012,07,25,12,45,21.80
2012,07,25,12,46,21.80
2012,07,25,12,47,21.80
2012,07,25,12,48,21.80
2012,07,25,12,49,21.90
2012,07,25,12,50,21.90
2012,07,25,12,51,21.90
2012,07,25,12,52,21.80
2012,07,25,12,53,21.80
2012,07,25,12,54,21.80
2012,07,25,12,55,21.80
2012,07,25,12,56,21.80
2012,07,25,12,57,21.90
2012,07,25,12,58,22.00
2012,07,25,12,59,22.10
2012,07,25,13,00,22.20
2012,07,25,13,01,22.30
2012,07,25,13,02,22.40
2012,07,25,13,03,22.40
2012,07,25,13,04,22.50
2012,07,25,13,05,22.60
2012,07,25,13,06,22.70
2012,07,25,13,07,22.70
2012,07,25,13,08,22.70
2012,07,25,13,09,22.70
2012,07,25,13,10,22.80
2012,07,25,13,11,22.80
2012,07,25,13,12,22.80
2012,07,25,13,13,22.80
2012,07,25,13,14,22.70
2012,07,25,13,15,22.70
2012,07,25,13,16,22.60
2012,07,25,13,17,22.50
2012,07,25,13,18,22.40
2012,07,25,13,19,22.30
2012,07,25,13,20,22.20
2012,07,25,13,21,22.20
2012,07,25,13,22,22.20
2012,07,25,13,23,22.20
2012,07,25,13,24,22.20
2012,07,25,13,25,22.20
2012,07,25,13,26,22.20
2012,07,25,13,27,22.20
2012,07,25,13,28,22.30
2012,07,25,13,29,22.30
2012,07,25,13,30,22.40
2012,07,25,13,31,22.50
2012,07,25,13,32,22.40
2012,07,25,13,33,22.50
2012,07,25,13,34,22.60
2012,07,25,13,35,22.70
2012,07,25,13,36,22.70
2012,07,25,13,37,22.80
2012,07,25,13,38,22.80
2012,07,25,13,39,22.80
2012,07,25,13,40,22.80
2012,07,25,13,41,22.80
2012,07,25,13,42,22.70
2012,07,25,13,43,22.70
2012,07,25,13,44,22.60
2012,07,25,13,45,22.60
2012,07,25,13,46,22.50
2012,07,25,13,47,22.40
2012,07,25,13,48,22.20
2012,07,25,13,49,22.10
2012,07,25,13,50,22.10
2012,07,25,13,51,22.10
2012,07,25,13,52,22.20
2012,07,25,13,53,22.20
2012,07,25,13,54,22.30
2012,07,25,13,55,22.20
2012,07,25,13,56,22.20
2012,07,25,13,57,22.20
2012,07,25,13,58,22.30
2012,07,25,13,59,22.50
2012,07,25,14,00,22.60
2012,07,25,14,01,22.60
2012,07,25,14,02,22.70
2012,07,25,14,03,22.80
2012,07,25,14,04,22.80
2012,07,25,14,05,22.70
2012,07,25,14,06,22.80
2012,07,25,14,07,22.80
2012,07,25,14,08,22.70
2012,07,25,14,09,22.60
2012,07,25,14,10,22.60
2012,07,25,14,11,22.50
2012,07,25,14,12,22.50
2012,07,25,14,13,22.60
2012,07,25,14,14,22.60
2012,07,25,14,15,22.60
2012,07,25,14,16,22.60
2012,07,25,14,17,22.60
2012,07,25,14,18,22.60
2012,07,25,14,19,22.70
2012,07,25,14,20,22.80
2012,07,25,14,21,22.80
2012,07,25,14,22,22.80
2012,07,25,14,23,22.70
2012,07,25,14,24,22.70
2012,07,25,14,25,22.60
2012,07,25,14,26,22.50
2012,07,25,14,27,22.40
2012,07,25,14,28,22.40
2012,07,25,14,29,22.40
2012,07,25,14,30,22.40
2012,07,25,14,31,22.40
2012,07,25,14,32,22.40
2012,07,25,14,33,22.40
2012,07,25,14,34,22.40
2012,07,25,14,35,22.50
2012,07,25,14,36,22.60
2012,07,25,14,37,22.60
2012,07,25,14,38,22.60
2012,07,25,14,39,22.50
2012,07,25,14,40,22.50
2012,07,25,14,41,22.60
2012,07,25,14,42,22.70
2012,07,25,14,43,22.70
2012,07,25,14,44,22.70
2012,07,25,14,45,22.70
2012,07,25,14,46,22.70
2012,07,25,14,47,22.80
2012,07,25,14,48,22.90
2012,07,25,14,49,22.90
2012,07,25,14,50,22.90
2012,07,25,14,51,22.90
2012,07,25,14,52,23.00
2012,07,25,14,53,22.90
2012,07,25,14,54,23.00
2012,07,25,14,55,23.00
2012,07,25,14,56,23.10
2012,07,25,14,57,23.10
2012,07,25,14,58,23.20
2012,07,25,14,59,23.20
2012,07,25,15,00,23.30
2012,07,25,15,01,23.40
2012,07,25,15,02,23.50
2012,07,25,15,03,23.60
2012,07,25,15,04,23.70
2012,07,25,15,05,23.70
2012,07,25,15,06,23.70
2012,07,25,15,07,23.70
2012,07,25,15,08,23.70
2012,07,25,15,09,23.70
2012,07,25,15,10,23.60
2012,07,25,15,11,23.40
2012,07,25,15,12,23.30
2012,07,25,15,13,23.30
2012,07,25,15,14,23.20
2012,07,25,15,15,23.20
2012,07,25,15,16,23.20
2012,07,25,15,17,23.10
2012,07,25,15,18,23.10
2012,07,25,15,19,23.10
2012,07,25,15,20,23.10
2012,07,25,15,21,23.10
2012,07,25,15,22,23.20
2012,07,25,15,23,23.40
2012,07,25,15,24,23.30
2012,07,25,15,25,23.30
2012,07,25,15,26,23.30
2012,07,25,15,27,23.40
2012,07,25,15,28,23.40
2012,07,25,15,29,23.40
2012,07,25,15,30,23.40
2012,07,25,15,31,23.30
2012,07,25,15,32,23.30
2012,07,25,15,33,23.30
2012,07,25,15,34,23.30
2012,07,25,15,35,23.20
2012,07,25,15,36,23.10
2012,07,25,15,37,23.20
2012,07,25,15,38,23.20
2012,07,25,15,39,23.20
2012,07,25,15,40,23.20
2012,07,25,15,41,23.20
2012,07,25,15,42,23.20
2012,07,25,15,43,23.10
2012,07,25,15,44,23.10
2012,07,25,15,45,23.20
2012,07,25,15,46,23.20
2012,07,25,15,47,23.30
2012,07,25,15,48,23.40
2012,07,25,15,49,23.50
2012,07,25,15,50,23.50
2012,07,25,15,51,23.60
2012,07,25,15,52,23.70
2012,07,25,15,53,23.70
2012,07,25,15,54,23.60
2012,07,25,15,55,23.60
2012,07,25,15,56,23.60
2012,07,25,15,57,23.50
2012,07,25,15,58,23.40
2012,07,25,15,59,23.40
2012,07,25,16,00,23.30
2012,07,25,16,01,23.40
2012,07,25,16,02,23.40
2012,07,25,16,03,23.40
2012,07,25,16,04,23.40
2012,07,25,16,05,23.30
2012,07,25,16,06,23.30
2012,07,25,16,07,23.30
2012,07,25,16,08,23.40
2012,07,25,16,09,23.50
2012,07,25,16,10,23.50
2012,07,25,16,11,23.50
2012,07,25,16,12,23.50
2012,07,25,16,13,23.40
2012,07,25,16,14,23.40
2012,07,25,16,15,23.30
2012,07,25,16,16,23.30
2012,07,25,16,17,23.40
2012,07,25,16,18,23.40
2012,07,25,16,19,23.50
2012,07,25,16,20,23.40
2012,07,25,16,21,23.50
2012,07,25,16,22,23.60
2012,07,25,16,23,23.60
2012,07,25,16,24,23.60
2012,07,25,16,25,23.60
2012,07,25,16,26,23.60
2012,07,25,16,27,23.70
2012,07,25,16,28,23.70
2012,07,25,16,29,23.70
2012,07,25,16,30,23.70
2012,07,25,16,31,23.80
2012,07,25,16,32,23.80
2012,07,25,16,33,23.70
2012,07,25,16,34,23.70
2012,07,25,16,35,23.60
2012,07,25,16,36,23.60
2012,07,25,16,37,23.50
2012,07,25,16,38,23.50
2012,07,25,16,39,23.40
2012,07,25,16,40,23.40
2012,07,25,16,41,23.40
2012,07,25,16,42,23.40
2012,07,25,16,43,23.30
2012,07,25,16,44,23.20
2012,07,25,16,45,23.10
2012,07,25,16,46,23.00
2012,07,25,16,47,22.90
2012,07,25,16,48,22.80
2012,07,25,16,49,22.80
2012,07,25,16,50,22.80
2012,07,25,16,51,22.90
2012,07,25,16,52,22.90
2012,07,25,16,53,23.00
2012,07,25,16,54,23.10
2012,07,25,16,55,23.20
2012,07,25,16,56,23.20
2012,07,25,16,57,23.30
2012,07,25,16,58,23.30
2012,07,25,16,59,23.40
2012,07,25,17,00,23.40
2012,07,25,17,01,23.30
2012,07,25,17,02,23.20
2012,07,25,17,03,23.10
2012,07,25,17,04,23.00
2012,07,25,17,05,22.90
2012,07,25,17,06,22.80
2012,07,25,17,07,22.80
2012,07,25,17,08,22.70
2012,07,25,17,09,22.60
2012,07,25,17,10,22.60
2012,07,25,17,11,22.60
2012,07,25,17,12,22.60
2012,07,25,17,13,22.60
2012,07,25,17,14,22.60
2012,07,25,17,15,22.50
2012,07,25,17,16,22.20
2012,07,25,17,17,21.90
2012,07,25,17,18,21.50
2012,07,25,17,19,21.10